Weather in Tobago

Trinidad and Tobago     11°09′01″N   60°50′12″W
temp.,
°C
wind,
m/s
gust,
m/s
humid.,
%
clouds,
%
prec.,
mm/h
press.,
hPa
HPBL,
m
5 august, thu
thu523:00+28ene45759 0.0 1017835
02:00+28ene34710 0.0 1015770
05:00+28ene45775 0.0 1016815
08:00+28ne347471 0.1 1017701
11:00+28e34759 2.2 1018489
14:00+28ene45765 2.3 1015734
17:00+28ene44747 0.0 1014811
20:00+28ene557714 0.1 1016768
6 august, fri
fri623:00+28ene667421 0.4 1016874
02:00+28e677518 0.4 10151006
05:00+28ene677520 0.0 1015885
08:00+28ene67738 0.0 1017978
11:00+27ene567817 0.6 1017682
14:00+28e557310 2.2 1014919
17:00+28ene457026 0.0 1014942
20:00+28ene457314 0.0 1015925
7 august, sat
sat723:00+28ene55714 0.0 1016884
02:00+27ene55715 0.0 1013808
05:00+27ene447524 0.0 1014773
08:00+27ne447625 0.6 1015761
11:00+28e337318 0.3 1015798
14:00+28e337315 0.3 1013797
17:00+28ene337212 0.1 1012786
20:00+28ene34745 1.4 1014547
8 august, sun
sun823:00+28ene447423 2.8 1015799
02:00+27ene447671 2.9 1012736
05:00+27ene447299 0.1 1013784
08:00+27e446981 0.1 1014794
11:00+28ese44685 0.0 1015832
14:00+28ese337011 0.0 1013832
17:00+28e337036 0.0 1012692
20:00+28ene4469100 0.0 1014724
9 august, mon
mon923:00+28ene5568100 0.0 1015772
02:00+28ene45675 0.0 1013706
05:00+27ne4474100 0.0 1013723
08:00+27e337793 0.0 1015691
11:00+28se446846 0.0 1015790
14:00+28se556717 0.0 1013832
17:00+28ese557362 0.0 1013904
20:00+28ese6776100 0.1 1014875